This demonstration page uses our WeatherBlox Daily Observations layout. Learn more.

Left ArrowRight Arrow

44.89941, -97.11507

Hourly Observations for July 1, 2020

Temp ( °F °C ) Dew Point ( °F °C ) Humidity (%) Winds ( mph kmh ) Pressure ( in mb ) Visibility ( mi km ) Precip ( " mm )
12:53 am 00:53 Partly Cloudy 73 22.8 69 20.6 87 87 WNW 5 7 29.72 1006 10 16 0.00 0.00
1:36 am 01:36 Cloudy with Nearby Thunderstorms 72 22.2 66 18.9 82 82 W 18 30 29.75 1007 10 16 0.00 0.00
1:51 am 01:51 Windy with Storms Likely 66 19 57 14 73 73 W 30 48 29.81 1010 10 16 0.00 0.00
1:52 am 01:52 Windy with Storms Likely 66 18.9 58 14.4 75 75 W 25 41 29.83 1010 10 16 0.00 0.00
2:02 am 02:02 Cloudy with Strong Thunderstorms 62 16.7 56 13.3 80 80 WNW 17 28 29.85 1011 2 3 0.17 4.32
2:09 am 02:09 Cloudy with Strong Thunderstorms 62 16.7 57 13.9 84 84 NW 14 22 29.85 1011 3 5 0.24 6.10
2:27 am 02:27 Mostly Cloudy with Nearby Thunderstorms 63 17.2 60 15.6 90 90 NNW 14 22 29.78 1009 9 14 0.29 7.37
2:36 am 02:36 Cloudy 64 17.8 60 15.6 87 87 NNW 12 19 29.78 1008 10 16 0.29 7.37
2:53 am 02:53 Cloudy 63 17.2 59 15 87 87 N 12 19 29.73 1007 10 16 0.29 7.37
3:53 am 03:53 Mostly Cloudy with Light Rain 63 17.2 60 15.6 90 90 S 9 15 29.74 1007 10 16 0.00 0.00
4:53 am 04:53 Clear 63 17.2 60 15.6 90 90 S 10 17 29.77 1008 10 16 0.01 0.25
5:53 am 05:53 Sunny 62 16.7 59 15 90 90 W 6 9 29.78 1009 10 16 0.00 0.00
6:53 am 06:53 Sunny 62 16.7 60 15.6 93 93 E 5 7 29.81 1010 10 16 0.00 0.00
7:53 am 07:53 Sunny 65 18.3 59 15 81 81 ENE 5 7 29.84 1011 10 16 0.00 0.00
8:53 am 08:53 Sunny 67 19.4 61 16.1 81 81 SSE 7 11 29.85 1011 10 16 0.00 0.00
9:53 am 09:53 Sunny 70 21.1 63 17.2 79 79 SSW 8 13 29.88 1012 10 16 0.00 0.00
10:53 am 10:53 Sunny 72 22.2 64 17.8 76 76 S 7 11 29.88 1012 10 16 0.00 0.00
11:53 am 11:53 Sunny 75 23.9 65 18.3 71 71 W 7 11 29.88 1012 10 16 0.00 0.00
12:53 pm 12:53 Sunny 78 25.6 63 17.2 60 60 SSW 6 9 29.88 1012 10 16 0.00 0.00
1:53 pm 13:53 Sunny 81 27.2 62 16.7 53 53 SW 8 13 29.89 1012 10 16 0.00 0.00
2:53 pm 14:53 Sunny 83 28.3 62 16.7 49 49 SSW 10 17 29.89 1012 10 16 0.00 0.00
3:53 pm 15:53 Sunny 83 28.3 64 17.8 53 53 S 10 17 29.90 1012 10 16 0.00 0.00
4:53 pm 16:53 Sunny 84 28.9 67 19.4 57 57 S 9 15 29.89 1012 10 16 0.00 0.00
5:53 pm 17:53 Sunny 83 28.3 66 18.9 57 57 S 10 17 29.89 1012 10 16 0.00 0.00
6:53 pm 18:53 Sunny 83 28.3 67 19.4 59 59 S 10 17 29.90 1013 10 16 0.00 0.00
7:53 pm 19:53 Sunny 81 27.2 69 20.6 67 67 S 7 11 29.91 1013 10 16 0.00 0.00
8:53 pm 20:53 Sunny 78 25.6 69 20.6 74 74 SSE 6 9 29.92 1013 10 16 0.00 0.00
9:53 pm 21:53 Clear 76 24.4 69 20.6 79 79 SE 5 7 29.94 1014 10 16 0.00 0.00
10:53 pm 22:53 Clear 73 22.8 67 19.4 81 81 SSE 6 9 29.95 1014 10 16 0.00 0.00
11:53 pm 23:53 Clear 73 22.8 67 19.4 81 81 SE 5 7 29.96 1015 10 16 0.00 0.00

Powered by AerisWeather